1493884800.42,6949,14.13,73612.0,3.57,0.67,0.71,0,*49
1493884801.63,6950,14.13,73612.5,3.59,0.71,0.87,0,*41
1493884802.87,6951,14.13,73614.8,3.57,0.59,0.71,0,*4D
1493884804.08,6952,14.13,73614.3,3.59,0.71,0.83,0,*47
1493884805.29,6953,14.13,73612.8,3.59,0.75,0.83,0,*42
1493884806.5,6954,14.13,73614.0,3.59,0.63,0.83,0,*42
1493884807.7,6955,14.13,73610.0,3.59,0.71,0.95,0,*47
1493884808.91,6956,14.13,73610.5,3.59,0.75,0.95,0,*40
1493884810.09,6957,14.13,73614.3,3.59,0.83,1.05,0,*70
1493884811.31,6958,14.13,73610.8,3.59,0.83,1.09,0,*73
1493884812.51,6959,14.13,73612.3,3.59,0.87,1.05,0,*7A
1493884813.73,6960,14.13,73614.5,3.59,0.87,1.09,0,*7C
1493884814.92,6961,14.13,73612.0,3.59,0.95,1.05,0,*72
1493884816.13,6962,14.13,73614.5,3.61,0.87,1.01,0,*7D
1493884817.32,6963,14.13,73610.8,3.59,0.83,0.97,0,*4D
1493884818.51,6964,14.13,73612.3,3.59,0.87,1.05,0,*74
1493884819.72,6965,14.13,73610.5,3.61,0.79,0.97,0,*45
1493884820.91,6966,14.13,73612.0,3.63,0.87,1.01,0,*7B
1493884822.16,6967,14.13,73610.3,3.61,0.87,1.09,0,*70
1493884823.36,6968,14.13,73612.0,3.61,0.79,0.97,0,*48
1493884824.59,6969,14.13,73612.3,3.61,0.63,0.79,0,*42
1493884825.8,6970,14.13,73610.8,3.63,0.67,0.91,0,*4A
1493884827.04,6971,14.13,73612.0,3.61,0.79,0.79,0,*40
1493884828.28,6972,14.13,73610.5,3.61,0.55,0.75,0,*41
1493884829.51,6973,14.13,73608.0,3.61,0.67,0.87,0,*4C
1493884830.74,6974,14.13,73608.8,3.61,0.75,0.91,0,*4F
1493884831.96,6975,14.13,73608.8,3.61,0.91,1.01,0,*7C
1493884833.16,6976,14.13,73612.8,3.59,0.87,1.05,0,*77
1493884834.37,6977,14.13,73610.8,3.61,0.79,0.97,0,*46
1493884835.59,6978,14.13,73608.8,3.61,0.97,1.21,0,*75
1493884836.8,6979,14.13,73614.8,3.59,0.63,0.75,0,*44
1493884838.01,6980,14.13,73612.8,3.59,0.71,0.75,0,*41
1493884839.22,6981,14.13,73612.3,3.59,0.71,0.95,0,*4E
1493884840.46,6982,14.13,73616.3,3.61,0.79,0.91,0,*4A
1493884841.67,6983,14.13,73610.3,3.59,0.83,0.95,0,*41
1493884842.88,6984,14.13,73614.5,3.61,0.79,0.97,0,*4A
1493884844.12,6985,14.13,73618.3,3.61,0.87,1.09,0,*7C
1493884845.35,6986,14.13,73616.3,3.61,0.13,0.17,0,*4C
1493884846.57,6987,14.13,73618.5,3.61,0.67,0.79,0,*46
1493884847.79,6988,14.13,73614.8,3.63,0.87,1.09,0,*73
1493884849.01,6989,14.13,73612.3,3.61,1.01,1.25,0,*41
1493884850.23,6990,14.13,73612.3,3.59,0.95,1.09,0,*70
1493884851.46,6991,14.13,73610.0,3.61,0.75,0.87,0,*43
1493884852.68,6992,14.13,73614.5,3.61,0.97,1.09,0,*7B
1493884853.9,6993,14.13,73612.0,3.61,0.97,1.13,0,*71
1493884855.15,6994,14.13,73610.3,3.61,1.09,1.25,0,*45
1493884856.37,6995,14.13,73610.3,3.61,1.01,1.25,0,*4C
1493884857.6,6996,14.13,73614.5,3.63,1.21,1.33,0,*48
1493884858.85,6997,14.13,73614.8,3.61,1.13,1.25,0,*4D
1493884860.04,6998,14.13,73614.8,3.63,0.87,0.97,0,*44
1493884861.26,6999,14.13,73612.5,3.61,0.97,1.21,0,*7A
1493884862.47,7000,14.13,73614.5,3.63,0.51,0.63,0,*4D
1493884863.66,7001,14.13,73618.0,3.63,0.87,0.97,0,*4C
1493884864.84,7002,14.13,73610.3,3.63,0.79,0.97,0,*4E
1493884866.04,7003,14.13,73618.5,3.63,1.01,1.25,0,*49
1493884867.24,7004,14.13,73612.0,3.63,1.01,1.21,0,*4A
1493884868.44,7005,14.13,73612.8,3.65,0.97,1.21,0,*73
1493884869.65,7006,14.13,73614.0,3.65,1.05,1.37,0,*4D
1493884870.87,7007,14.13,73612.3,3.63,1.09,1.25,0,*45
1493884872.07,7008,14.13,73614.3,3.65,1.01,1.17,0,*45
1493884873.28,7009,14.13,73614.5,3.65,1.01,1.25,0,*45
1493884874.51,7010,14.13,73612.8,3.65,1.13,1.29,0,*42
1493884875.74,7011,14.13,73610.8,3.67,1.05,1.29,0,*46
1493884876.94,7012,14.13,73608.0,3.65,1.01,1.13,0,*4A
1493884878.15,7013,14.13,73608.3,3.67,0.83,1.01,0,*71
1493884879.36,7014,14.13,73612.3,3.67,0.43,0.55,0,*4A
1493884880.59,7015,14.13,73610.8,3.67,1.05,1.25,0,*4E
1493884881.84,7016,14.13,73614.3,3.67,1.17,1.29,0,*42
1493884883.09,7017,14.13,73614.0,3.71,1.09,1.29,0,*4B
1493884884.32,7018,14.13,73612.5,3.71,1.05,1.09,0,*4A
1493884885.54,7019,14.13,73614.0,3.71,1.05,1.29,0,*49
1493884886.77,7020,14.13,73610.0,3.67,1.01,1.25,0,*4C
1493884888.03,7021,14.13,73614.8,3.67,1.13,1.37,0,*4D
1493884889.25,7022,14.13,73614.5,3.71,1.09,1.41,0,*43
1493884890.47,7023,14.13,73616.5,3.71,1.17,1.41,0,*4D
1493884891.69,7024,14.13,73614.0,3.71,1.21,1.41,0,*4F
1493884892.91,7025,14.13,73614.0,3.73,1.43,1.51,0,*49
1493884894.14,7026,14.13,73614.5,3.73,1.25,1.37,0,*4A
1493884895.37,7027,14.13,73614.0,3.73,1.29,1.51,0,*47
1493884896.59,7028,14.13,73616.0,3.71,1.17,1.41,0,*46
1493884897.83,7029,14.13,73614.3,3.75,1.33,1.47,0,*43
1493884899.04,7030,14.13,73612.5,3.75,0.87,0.97,0,*49
1493884900.29,7031,14.13,73610.3,3.75,1.13,1.25,0,*4C
1493884901.55,7032,14.13,73614.5,3.75,1.13,1.37,0,*4C
1493884902.79,7033,14.13,73612.8,3.75,1.33,1.47,0,*48
1493884904.04,7034,14.13,73610.3,3.75,1.33,1.51,0,*48
1493884905.28,7035,14.13,73612.3,3.75,1.25,1.47,0,*49
1493884906.51,7036,14.13,73612.8,3.77,1.37,1.55,0,*48
1493884907.7,7037,14.13,73610.8,3.77,1.41,1.55,0,*48
1493884908.93,7038,14.13,73610.3,3.77,1.17,1.29,0,*4F
1493884910.11,7039,14.13,73614.5,3.77,0.71,1.01,0,*75
1493884911.36,7040,14.13,73616.3,3.75,1.33,1.51,0,*4B
1493884912.59,7041,14.13,73610.5,3.77,1.13,1.29,0,*45
1493884913.8,7042,14.13,73608.3,3.77,0.95,1.13,0,*70
1493884915.0,7043,14.13,73608.3,3.77,0.91,1.05,0,*72
1493884916.22,7044,14.13,73612.8,3.77,1.17,1.29,0,*44
1493884917.47,7045,14.13,73614.3,3.79,1.25,1.47,0,*42
1493884918.72,7046,14.13,73614.0,3.79,1.37,1.51,0,*45
1493884919.96,7047,14.13,73612.5,3.79,1.25,1.47,0,*40
1493884921.16,7048,14.13,73610.5,3.81,1.29,1.41,0,*42
1493884922.39,7049,14.13,73614.0,3.79,0.83,0.95,0,*4D
1493884923.61,7050,14.13,73610.0,3.79,1.05,1.29,0,*4C
1493884924.81,7051,14.13,73616.3,3.81,1.05,1.29,0,*4A
1493884926.03,7052,14.13,73612.0,3.79,1.01,1.25,0,*46
1493884927.22,7053,14.13,73616.8,3.81,0.97,1.25,0,*7E
1493884928.41,7054,14.13,73614.0,3.81,0.97,1.21,0,*7D
1493884929.6,7055,14.13,73612.8,3.81,0.83,0.97,0,*45
1493884930.81,7056,14.13,73612.0,3.79,0.95,1.05,0,*7C
1493884932.04,7057,14.13,73612.8,3.81,1.29,1.51,0,*4D
1493884933.23,7058,14.13,73612.0,3.81,1.09,0.97,0,*7B
1493884934.42,7059,14.13,73614.3,3.81,0.97,1.17,0,*75
1493884935.65,7060,14.13,73612.5,3.81,1.17,1.33,0,*40
1493884936.88,7061,14.13,73618.3,3.81,1.21,1.55,0,*44
1493884938.06,7062,14.13,73612.5,3.81,1.41,1.59,0,*4D
1493884939.29,7063,14.13,73618.5,3.81,1.29,1.43,0,*49
1493884940.53,7064,14.13,73618.0,3.83,1.25,1.47,0,*44
1493884941.74,7065,14.13,73618.5,3.85,1.43,1.63,0,*45
1493884942.99,7066,14.13,73612.8,3.83,1.55,1.63,0,*47
1493884944.21,7067,14.13,73618.0,3.85,1.21,1.43,0,*41
1493884945.43,7068,14.13,73616.8,3.85,1.25,1.47,0,*4E
1493884946.65,7069,14.13,73616.8,3.85,1.33,1.47,0,*48
1493884947.87,7070,14.13,73616.5,3.85,1.43,1.55,0,*44
1493884949.08,7071,14.13,73614.5,3.85,1.43,1.63,0,*40
1493884950.31,7072,14.13,73620.5,3.85,1.37,1.59,0,*49
1493884951.55,7073,14.13,73618.5,3.87,1.37,1.59,0,*4A
1493884952.78,7074,14.13,73618.3,3.89,1.37,1.51,0,*4B
1493884953.99,7075,14.13,73614.8,3.87,1.41,1.67,0,*40
1493884955.21,7076,14.13,73618.0,3.89,1.59,1.67,0,*44
1493884956.44,7077,14.13,73618.0,3.89,1.29,1.51,0,*47
1493884957.67,7078,14.13,73618.0,3.89,1.37,1.51,0,*47
1493884958.92,7079,14.13,73616.3,3.87,1.17,1.37,0,*4A
1493884960.14,7080,14.13,73618.0,3.89,1.37,1.59,0,*48
1493884961.37,7081,14.13,73616.3,3.89,1.25,1.47,0,*45
1493884962.58,7082,14.13,73618.3,3.93,1.43,1.67,0,*4F
1493884963.79,7083,14.13,73612.8,3.93,1.43,1.67,0,*4E
1493884965.0,7084,14.13,73618.5,3.93,1.51,1.71,0,*4D
1493884966.24,7085,14.13,73616.0,3.95,1.47,1.67,0,*4A
1493884967.48,7086,14.13,73614.8,3.95,1.37,1.63,0,*4A
1493884968.73,7087,14.13,73618.5,3.95,1.37,1.47,0,*4D
1493884969.96,7088,14.13,73616.3,3.95,1.47,1.71,0,*40
1493884971.2,7089,14.13,73618.0,3.95,1.47,1.71,0,*41
1493884972.39,7090,14.13,73618.5,3.93,1.41,1.63,0,*4A
1493884973.63,7091,14.13,73618.3,3.95,1.25,1.47,0,*49
1493884974.85,7092,14.13,73616.3,3.97,0.87,1.01,0,*73
1493884976.09,7093,14.13,73614.8,3.97,0.63,0.75,0,*4A
1493884977.3,7094,14.13,73612.5,3.97,0.87,0.97,0,*4B
1493884978.54,7095,14.13,73614.3,3.95,0.87,1.09,0,*7E
1493884979.78,7096,14.13,73614.8,3.97,0.63,0.83,0,*46
1493884981.0,7097,14.13,73612.8,3.95,1.01,1.13,0,*48
1493884982.25,7098,14.13,73620.3,3.97,1.21,1.43,0,*42
1493884983.52,7099,14.13,73622.5,3.97,1.21,1.33,0,*44
1493884984.76,7100,14.13,73618.8,3.97,0.71,0.83,0,*4B
1493884986.0,7101,14.13,73616.8,3.97,0.71,0.83,0,*4A
1493884987.23,7102,14.13,73614.8,3.95,0.47,0.63,0,*40
1493884988.46,7103,14.13,73612.0,3.95,0.59,0.71,0,*4D
1493884989.65,7104,14.13,73610.8,3.93,0.97,1.21,0,*7A
1493884990.89,7105,14.13,73608.3,3.95,1.43,1.67,0,*47
1493884992.12,7106,14.13,73614.5,3.95,1.47,1.67,0,*40
1493884993.37,7107,14.13,73616.0,3.95,1.37,1.67,0,*46
1493884994.63,7108,14.13,73618.5,3.97,1.37,1.71,0,*4C
1493884995.88,7109,14.13,73616.5,3.97,1.37,1.67,0,*4A
1493884997.12,7110,14.13,73618.5,3.99,1.37,1.51,0,*49
1493884998.32,7111,14.13,73616.0,3.99,1.17,1.41,0,*4B
1493884999.54,7112,14.13,73618.0,3.99,1.25,1.47,0,*4F
1493885000.8,7113,14.13,73620.0,3.97,1.13,1.37,0,*42
1493885002.03,7114,14.13,73618.8,3.99,1.29,1.51,0,*42
1493885003.23,7115,14.13,73620.8,3.99,1.41,1.63,0,*4C
1493885004.49,7116,14.13,73616.0,3.97,0.91,1.09,0,*71
1493885005.69,7117,14.13,73616.8,3.99,0.91,1.05,0,*72
1493885006.9,7118,14.13,73616.3,3.99,0.51,0.67,0,*44
1493885008.12,7119,14.13,73616.3,3.99,0.91,1.13,0,*7B
1493885009.35,7120,14.13,73618.3,3.99,0.91,1.13,0,*71
1493885010.61,7121,14.13,73618.5,3.97,1.09,1.21,0,*4F
1493885011.83,7122,14.13,73618.8,3.99,1.25,1.47,0,*4C
1493885013.08,7123,14.13,73616.3,3.97,1.43,1.59,0,*4C
1493885014.31,7124,14.13,73616.8,3.99,1.37,1.51,0,*4E
1493885015.53,7125,14.13,73618.0,3.99,1.47,1.71,0,*4A
1493885016.73,7126,14.13,73618.8,3.99,1.41,1.63,0,*4C
1493885017.97,7127,14.13,73620.0,4.01,1.51,1.71,0,*49
1493885019.21,7128,14.13,73618.5,4.01,1.47,1.63,0,*42
1493885020.44,7129,14.13,73614.3,4.03,1.17,1.29,0,*4A
1493885021.66,7130,14.13,73618.0,4.01,0.79,1.05,0,*77
1493885022.9,7131,14.13,73614.0,4.01,0.75,0.91,0,*46
1493885024.16,7132,14.13,73614.3,4.01,1.13,1.37,0,*49
1493885025.41,7133,14.13,73612.3,4.01,1.37,1.59,0,*46
1493885026.64,7134,14.13,73612.3,4.03,1.33,1.63,0,*4E
1493885027.83,7135,14.13,73614.3,4.03,1.41,1.63,0,*4A
1493885029.06,7136,14.13,73610.3,4.03,1.33,1.67,0,*48
1493885030.25,7137,14.13,73614.8,4.03,1.51,1.79,0,*42
1493885031.45,7138,14.13,73614.0,4.03,1.55,1.79,0,*49
1493885032.67,7139,14.13,73618.0,4.03,1.43,1.67,0,*40
1493885033.9,7140,14.13,73612.0,4.03,1.17,1.33,0,*4E
1493885035.11,7141,14.13,73612.3,4.07,1.43,1.59,0,*46
1493885036.34,7142,14.13,73612.3,4.05,1.47,1.79,0,*41
1493885037.58,7143,14.13,73614.0,4.05,1.47,1.71,0,*48
1493885038.84,7144,14.13,73610.5,4.05,1.37,1.55,0,*4E
1493885040.06,7145,14.13,73612.3,4.07,1.37,1.47,0,*4E
1493885041.26,7146,14.13,73614.0,4.07,1.01,1.09,0,*42
1493885042.5,7147,14.13,73614.8,4.05,0.71,0.83,0,*44
1493885043.77,7148,14.13,73616.8,4.05,1.13,1.33,0,*44
1493885045.01,7149,14.13,73622.8,4.05,1.25,1.43,0,*47
1493885046.24,7150,14.13,73616.0,4.07,1.25,1.55,0,*4A
1493885047.47,7151,14.13,73616.0,4.07,1.37,1.55,0,*48
1493885048.7,7152,14.13,73612.8,4.07,1.09,1.33,0,*46
1493885049.89,7153,14.13,73608.5,4.07,0.97,1.13,0,*73
1493885051.12,7154,14.13,73608.8,4.05,0.97,1.13,0,*76
1493885052.34,7155,14.13,73610.3,4.07,1.21,1.43,0,*4C
1493885053.57,7156,14.13,73606.0,4.07,1.33,1.55,0,*4B
1493885054.8,7157,14.13,73606.8,4.07,1.21,1.33,0,*49
1493885056.02,7158,14.13,73608.0,4.07,1.25,1.47,0,*41
1493885057.25,7159,14.13,73604.3,4.07,1.25,1.47,0,*40
1493885058.5,7160,14.13,73608.5,4.09,1.37,1.51,0,*40
1493885059.72,7161,14.13,73608.5,4.11,1.47,1.71,0,*4D
1493885060.97,7162,14.13,73608.5,4.09,1.37,1.59,0,*4A
1493885062.2,7163,14.13,73610.0,4.11,1.13,1.29,0,*43
1493885063.44,7164,14.13,73608.3,4.09,0.55,0.75,0,*46
1493885064.64,7165,14.13,73610.0,4.11,1.05,1.25,0,*4E
1493885065.9,7166,14.13,73614.5,4.09,1.17,1.29,0,*4B
1493885067.12,7167,14.13,73610.0,4.09,0.97,1.17,0,*7E
1493885068.34,7168,14.13,73608.8,4.09,1.17,1.41,0,*4B
1493885069.59,7169,14.13,73608.3,4.09,1.29,1.47,0,*41
1493885070.81,7170,14.13,73612.0,4.11,1.47,1.63,0,*4E
1493885072.03,7171,14.13,73616.8,4.13,1.33,1.41,0,*4E
1493885073.29,7172,14.13,73618.8,4.09,1.37,1.51,0,*43
1493885074.48,7173,14.13,73614.8,4.11,1.41,1.59,0,*42
1493885075.71,7174,14.13,73618.8,4.11,1.13,1.29,0,*45
1493885076.93,7175,14.13,73618.5,4.11,0.51,0.55,0,*49
1493885078.15,7176,14.13,73614.8,4.09,0.87,1.01,0,*78
1493885079.37,7177,14.13,73616.0,4.09,0.97,1.17,0,*7F
1493885080.58,7178,14.13,73616.5,4.11,0.51,0.51,0,*40
1493885081.84,7179,14.13,73614.3,4.09,1.13,1.29,0,*41
1493885083.06,7180,14.13,73614.3,4.09,0.91,1.01,0,*76
1493885084.28,7181,14.13,73614.0,4.09,0.97,1.25,0,*77
1493885085.51,7182,14.13,73612.8,4.11,1.13,1.29,0,*4C
1493885086.74,7183,14.13,73614.8,4.09,0.63,0.67,0,*49
1493885087.96,7184,14.13,73616.3,4.07,0.51,0.59,0,*4C
1493885089.17,7185,14.13,73614.5,4.07,0.59,0.63,0,*4C
1493885090.38,7186,14.13,73614.0,4.07,0.59,0.75,0,*48
1493885091.59,7187,14.13,73612.0,4.07,0.41,0.51,0,*46
1493885092.8,7188,14.13,73614.0,4.07,0.29,0.37,0,*47
1493885094.04,7189,14.13,73614.5,4.05,0.47,0.59,0,*44
1493885095.22,7190,14.13,73618.3,4.03,0.33,0.43,0,*42
1493885096.46,7191,14.13,73612.3,4.05,0.59,0.75,0,*4C
1493885097.68,7192,14.13,73614.0,4.01,0.29,0.43,0,*49
1493885098.86,7193,14.13,73614.3,4.03,0.37,0.43,0,*45
1493885100.1,7194,14.13,73614.8,4.01,0.41,0.55,0,*46
1493885101.34,7195,14.13,73616.3,4.01,0.95,1.17,0,*79
1493885102.56,7196,14.13,73612.0,4.03,1.21,1.43,0,*47
1493885103.79,7197,14.13,73612.5,4.01,1.17,1.41,0,*43
1493885105.02,7198,14.13,73612.3,4.03,1.21,1.33,0,*4E
1493885106.26,7199,14.13,73614.5,4.05,1.25,1.43,0,*4A
1493885107.51,7200,14.13,73610.5,4.05,1.25,1.43,0,*49
1493885108.74,7201,14.13,73612.3,4.05,1.01,1.25,0,*4E
1493885109.96,7202,14.13,73622.3,4.05,1.01,1.25,0,*4D
1493885111.16,7203,14.13,73618.0,4.03,1.05,1.21,0,*4A
1493885112.36,7204,14.13,73610.5,4.03,1.05,1.29,0,*45
1493885113.61,7205,14.13,73614.3,4.05,1.21,1.47,0,*4C
1493885114.87,7206,14.13,73612.3,4.05,1.33,1.55,0,*4F
1493885116.12,7207,14.13,73612.5,4.05,1.37,1.67,0,*4B
1493885117.35,7208,14.13,73608.8,4.07,1.09,1.21,0,*49
1493885118.58,7209,14.13,73614.3,4.05,1.01,1.37,0,*45
1493885119.81,7210,14.13,73610.0,4.07,1.33,1.55,0,*4A
1493885121.05,7211,14.13,73612.8,4.05,0.71,0.75,0,*4D
1493885122.25,7212,14.13,73614.5,4.07,1.01,1.21,0,*4A
1493885123.5,7213,14.13,73614.8,4.05,1.25,1.43,0,*4B
1493885124.73,7214,14.13,73618.5,4.07,1.33,1.47,0,*4D
1493885125.98,7215,14.13,73626.3,4.05,1.37,1.67,0,*48
1493885127.21,7216,14.13,73620.3,4.07,1.37,1.59,0,*44
1493885128.4,7217,14.13,73616.5,4.11,1.41,1.59,0,*43
1493885129.63,7218,14.13,73616.5,4.09,1.29,1.41,0,*42
1493885130.84,7219,14.13,73614.8,4.07,0.95,1.13,0,*7C
1493885132.07,7220,14.13,73614.0,4.07,1.21,1.43,0,*4D
1493885133.29,7221,14.13,73616.5,4.09,1.25,1.41,0,*44
1493885134.54,7222,14.13,73614.3,4.09,1.25,1.29,0,*49
1493885135.79,7223,14.13,73616.5,4.09,1.25,1.37,0,*47
1493885137.01,7224,14.13,73618.3,4.09,1.25,1.41,0,*41
1493885138.27,7225,14.13,73618.8,4.09,1.29,1.51,0,*4D
1493885139.49,7226,14.13,73616.3,4.11,1.37,1.59,0,*40
1493885140.69,7227,14.13,73616.8,4.11,1.41,1.63,0,*49
1493885141.91,7228,14.13,73618.5,4.09,1.41,1.63,0,*4F
1493885143.15,7229,14.13,73616.5,4.09,1.47,1.63,0,*48
1493885144.38,7230,14.13,73618.8,4.11,1.37,1.51,0,*4F
1493885145.58,7231,14.13,73616.0,4.11,1.01,1.17,0,*49
1493885146.79,7232,14.13,73616.3,4.11,0.29,0.51,0,*42
1493885148.04,7233,14.13,73616.8,4.09,0.87,1.13,0,*79
1493885149.3,7234,14.13,73622.5,4.09,1.13,1.29,0,*4B
1493885150.52,7235,14.13,73614.5,4.09,1.01,1.17,0,*44
1493885151.75,7236,14.13,73618.5,4.11,1.17,1.37,0,*4B
1493885152.95,7237,14.13,73614.0,4.11,1.25,1.41,0,*4A
1493885154.17,7238,14.13,73614.3,4.11,1.17,1.29,0,*4A
1493885155.4,7239,14.13,73614.0,4.11,1.17,1.37,0,*44
1493885156.62,7240,14.13,73614.5,4.09,0.41,0.43,0,*43
1493885157.85,7241,14.13,73618.0,4.09,0.51,0.63,0,*41
1493885159.09,7242,14.13,73618.8,4.09,0.51,0.55,0,*47
1493885160.33,7243,14.13,73618.3,4.09,0.63,0.75,0,*45
1493885161.49,7244,14.13,73616.0,4.11,0.43,0.43,0,*4C
1493885162.72,7245,14.13,73616.8,4.09,0.17,0.25,0,*45
1493885163.93,7246,14.13,73616.3,4.07,0.25,0.41,0,*4B
1493885165.14,7247,14.13,73612.3,4.07,0.83,0.87,0,*4C
1493885166.34,7248,14.13,73614.3,4.07,0.97,1.13,0,*7A
1493885167.55,7249,14.13,73614.0,4.05,0.87,0.97,0,*45
1493885168.79,7250,14.13,73616.8,4.05,0.71,0.75,0,*48
1493885169.99,7251,14.13,73614.8,4.07,0.97,1.21,0,*73
1493885171.22,7252,14.13,73610.0,4.05,0.97,1.21,0,*72
1493885172.43,7253,14.13,73618.0,4.07,0.95,1.13,0,*72
1493885173.64,7254,14.13,73618.0,4.05,-0.15,-0.15,0,*48
1493885174.88,7255,14.13,73608.5,4.05,0.13,0.21,0,*48
1493885176.09,7256,14.13,73608.0,4.05,0.83,0.97,0,*4F
1493885177.31,7257,14.13,73614.8,4.03,0.55,0.59,0,*41
1493885178.54,7258,14.13,73612.5,4.01,0.75,0.87,0,*4D
1493885179.76,7259,14.13,73612.0,4.03,0.95,1.09,0,*77
1493885180.95,7260,14.13,73612.8,4.03,0.97,1.17,0,*70
1493885182.17,7261,14.13,73614.0,4.03,0.95,1.17,0,*73
1493885183.41,7262,14.13,73614.5,4.01,0.95,1.13,0,*76
1493885184.65,7263,14.13,73614.3,4.01,0.95,1.17,0,*73
1493885185.89,7264,14.13,73616.0,4.01,0.75,0.79,0,*43
1493885187.09,7265,14.13,73612.3,4.03,0.67,0.71,0,*4B
1493885188.3,7266,14.13,73608.3,4.03,0.71,0.91,0,*41
1493885189.55,7267,14.13,73608.3,4.01,0.91,1.13,0,*77
1493885190.78,7268,14.13,73608.5,4.01,1.01,1.13,0,*40
1493885191.99,7269,14.13,73608.5,4.03,0.95,1.09,0,*74
1493885193.21,7270,14.13,73606.8,4.01,0.79,1.01,0,*74
1493885194.45,7271,14.13,73608.3,4.01,0.75,0.91,0,*41
1493885195.7,7272,14.13,73606.0,4.01,0.79,0.87,0,*49
1493885196.91,7273,14.13,73606.0,4.03,0.67,0.91,0,*42
1493885198.12,7274,14.13,73610.3,4.01,0.67,1.01,0,*7F
1493885199.34,7275,14.13,73612.3,4.01,0.87,1.01,0,*70
1493885200.59,7276,14.13,73614.5,4.01,0.91,1.13,0,*77
1493885201.81,7277,14.13,73614.3,4.01,0.91,1.05,0,*71
1493885203.03,7278,14.13,73610.3,4.03,0.91,1.17,0,*7F
1493885204.27,7279,14.13,73610.5,4.01,0.63,0.51,0,*42
1493885205.48,7280,14.13,73608.8,4.01,0.43,0.51,0,*46
1493885206.72,7281,14.13,73608.8,4.01,0.55,0.67,0,*45
1493885207.94,7282,14.13,73610.3,3.99,0.79,0.91,0,*47
1493885209.15,7283,14.13,73608.8,3.99,0.63,0.75,0,*47
1493885210.39,7284,14.13,73606.3,3.97,0.25,0.37,0,*4A
1493885211.6,7285,14.13,73606.5,3.99,0.63,0.79,0,*4D
1493885212.82,7286,14.13,73602.8,3.99,0.63,0.75,0,*42
1493885214.05,7287,14.13,73606.0,3.97,0.63,0.83,0,*44
1493885215.26,7288,14.13,73610.5,3.99,0.63,0.79,0,*40
1493885216.48,7289,14.13,73606.5,3.99,0.51,0.63,0,*4B
1493885217.72,7290,14.13,73606.0,3.97,0.47,0.59,0,*43
1493885218.93,7291,14.13,73606.8,3.99,0.67,0.75,0,*40
1493885220.17,7292,14.13,73608.8,3.97,0.71,0.83,0,*43
1493885221.4,7293,14.13,73608.8,3.95,0.63,0.75,0,*4A
1493885222.63,7294,14.13,73606.8,3.95,0.41,0.47,0,*4C
1493885223.87,7295,14.13,73604.3,3.97,0.59,0.63,0,*40
1493885225.1,7296,14.13,73606.0,3.95,0.51,0.59,0,*40
1493885226.33,7297,14.13,73608.8,3.95,0.75,0.75,0,*49
1493885227.57,7298,14.13,73614.3,3.95,0.75,0.87,0,*4B
1493885228.76,7299,14.13,73612.0,3.93,0.67,0.79,0,*4E
1493885229.91,7300,14.13,73614.5,3.93,0.43,0.43,0,*40
1493885231.11,7301,14.13,73616.0,3.93,0.67,0.83,0,*4B
1493885232.26,7302,14.13,73618.8,3.93,0.43,0.43,0,*42
1493885233.46,7303,14.13,73616.3,3.93,0.33,0.37,0,*47
1493885234.67,7304,14.13,73614.0,3.93,0.71,0.83,0,*49
1493885235.86,7305,14.13,73610.3,3.89,0.79,1.01,0,*70
1493885237.07,7306,14.13,73612.3,3.89,0.83,0.95,0,*4A
1493885238.28,7307,14.13,73610.5,3.89,0.75,0.91,0,*46
1493885239.5,7308,14.13,73602.5,3.89,0.63,0.91,0,*4E
1493885240.73,7309,14.13,73606.5,3.87,0.33,0.51,0,*48
1493885241.91,7310,14.13,73610.8,3.89,0.43,0.51,0,*49
1493885243.14,7311,14.13,73608.0,3.87,0.51,0.67,0,*40
1493885244.37,7312,14.13,73608.0,3.87,0.75,0.91,0,*4C
1493885245.52,7313,14.13,73614.0,3.89,0.43,0.43,0,*49
1493885246.76,7314,14.13,73612.0,3.87,0.55,0.67,0,*41
1493885247.99,7315,14.13,73610.8,3.87,0.55,0.67,0,*40
1493885249.22,7316,14.13,73612.8,3.87,0.63,0.75,0,*45
1493885250.44,7317,14.13,73610.5,3.89,0.55,0.55,0,*4D
1493885251.67,7318,14.13,73612.8,3.87,0.21,0.29,0,*44
1493885252.87,7319,14.13,73612.5,3.87,0.09,0.29,0,*7F
1493885254.1,7320,14.13,73614.3,3.87,0.29,0.33,0,*4C
1493885255.33,7321,14.13,73612.0,3.83,0.25,0.41,0,*40
1493885256.56,7322,14.13,73610.3,3.83,0.71,0.71,0,*41
1493885257.79,7323,14.13,73608.8,3.83,0.51,0.63,0,*41
1493885259.0,7324,14.13,73610.5,3.85,0.51,0.63,0,*40
1493885260.23,7325,14.13,73608.5,3.83,0.47,0.63,0,*40
1493885261.46,7326,14.13,73608.3,3.83,0.51,0.71,0,*47
1493885262.69,7327,14.13,73604.3,3.83,0.51,0.71,0,*46
1493885263.92,7328,14.13,73604.0,3.83,0.51,0.63,0,*4A
1493885265.15,7329,14.13,73606.5,3.83,0.63,0.87,0,*40
1493885266.39,7330,14.13,73606.0,3.83,0.51,0.71,0,*40
1493885267.61,7331,14.13,73604.5,3.83,0.63,0.71,0,*40
1493885268.82,7332,14.13,73604.0,3.81,0.59,0.83,0,*45
1493885270.02,7333,14.13,73608.5,3.81,0.67,0.71,0,*44
1493885271.24,7334,14.13,73608.5,3.81,0.47,0.59,0,*4B
1493885272.44,7335,14.13,73608.3,3.81,0.37,0.47,0,*42
1493885273.65,7336,14.13,73614.3,3.81,0.33,0.37,0,*42
1493885274.85,7337,14.13,73608.3,3.81,0.21,0.33,0,*44
1493885276.04,7338,14.13,73608.3,3.79,-0.07,-0.03,0,*4B
1493885277.23,7339,14.13,73614.0,3.79,-0.07,0.05,0,*61
1493885278.46,7340,14.13,73612.3,3.79,0.29,0.41,0,*4E
1493885279.64,7341,14.13,73612.0,3.79,0.43,0.43,0,*41
1493885280.84,7342,14.13,73614.0,3.77,0.33,0.41,0,*49
1493885282.07,7343,14.13,73608.8,3.75,0.25,0.37,0,*4C
1493885283.27,7344,14.13,73612.0,3.77,0.29,0.33,0,*41
1493885284.47,7345,14.13,73612.5,3.75,-0.11,-0.07,0,*7E
1493885285.69,7346,14.13,73608.3,3.75,0.13,0.25,0,*4F
1493885286.9,7347,14.13,73612.0,3.73,0.25,0.17,0,*4C
1493885288.08,7348,14.13,73612.5,3.73,0.01,0.13,0,*71
1493885289.29,7349,14.13,73614.3,3.73,0.41,0.59,0,*4A
1493885290.5,7350,14.13,73612.0,3.73,0.59,0.79,0,*49
1493885291.7,7351,14.13,73612.3,3.73,0.63,0.79,0,*41
1493885292.91,7352,14.13,73612.8,3.73,0.67,0.87,0,*47
1493885294.12,7353,14.13,73610.5,3.73,0.63,0.79,0,*43
1493885295.33,7354,14.13,73612.5,3.73,0.37,0.47,0,*48
1493885296.54,7355,14.13,73612.3,3.73,0.29,0.29,0,*4E
1493885297.78,7356,14.13,73614.8,3.71,0.21,0.21,0,*4F
1493885298.97,7357,14.13,73616.3,3.71,-0.11,0.01,0,*52
1493885300.18,7358,14.13,73612.5,3.73,0.47,0.59,0,*4C
1493885301.42,7359,14.13,73614.3,3.71,0.47,0.71,0,*45
1493885302.65,7360,14.13,73610.8,3.71,0.59,0.75,0,*44
1493885303.89,7361,14.13,73612.0,3.71,0.55,0.71,0,*4D
1493885305.14,7362,14.13,73614.0,3.71,0.55,0.55,0,*48
1493885306.37,7363,14.13,73616.3,3.67,0.29,0.41,0,*40
1493885307.58,7364,14.13,73616.8,3.67,0.33,0.43,0,*4E
1493885308.82,7365,14.13,73614.0,3.67,0.51,0.71,0,*4A
1493885310.03,7366,14.13,73616.0,3.67,0.43,0.55,0,*4C
1493885311.27,7367,14.13,73608.5,3.67,0.41,0.51,0,*4B
1493885312.48,7368,14.13,73614.0,3.65,0.29,0.33,0,*4C
1493885313.69,7369,14.13,73614.0,3.67,0.33,0.43,0,*43
1493885314.9,7370,14.13,73614.3,3.65,0.29,0.41,0,*40
1493885316.11,7371,14.13,73612.0,3.67,0.41,0.43,0,*4F
1493885317.33,7372,14.13,73608.5,3.65,0.41,0.51,0,*4D
1493885318.54,7373,14.13,73610.3,3.65,0.41,0.51,0,*4C
1493885319.76,7374,14.13,73608.8,3.65,0.55,0.67,0,*4B
1493885320.97,7375,14.13,73610.0,3.65,0.55,0.79,0,*45
1493885322.19,7376,14.13,73606.5,3.65,0.59,0.71,0,*42
1493885323.4,7377,14.13,73612.8,3.63,0.41,0.51,0,*4E
1493885324.61,7378,14.13,73612.8,3.63,0.51,0.63,0,*41
1493885325.82,7379,14.13,73612.0,3.63,0.51,0.47,0,*46
1493885327.0,7380,14.13,73612.0,3.61,-0.07,0.01,0,*6E
1493885328.15,7381,14.13,73614.0,3.63,0.01,0.05,0,*42
1493885329.38,7382,14.13,73618.0,3.61,0.13,0.13,0,*47
1493885330.61,7383,14.13,73618.5,3.61,0.29,0.37,0,*49
1493885331.84,7384,14.13,73618.0,3.61,0.25,0.41,0,*43
1493885333.07,7385,14.13,73614.0,3.61,0.37,0.51,0,*40
1493885334.3,7386,14.13,73616.3,3.61,0.51,0.67,0,*46
1493885335.54,7387,14.13,73614.5,3.61,0.51,0.63,0,*43
1493885336.76,7388,14.13,73616.3,3.61,0.37,0.41,0,*4C
1493885337.95,7389,14.13,73616.5,3.59,0.25,0.43,0,*47
1493885339.16,7390,14.13,73614.5,3.59,0.25,0.47,0,*4B
1493885340.4,7391,14.13,73618.0,3.57,0.37,0.47,0,*47
1493885341.63,7392,14.13,73616.0,3.57,0.33,0.41,0,*46
1493885342.87,7393,14.13,73616.5,3.57,0.47,0.67,0,*40